X

Important NEWS



New Hub Active

Miami is our new hub! Old members can request transfer via hr@dlxairways.net

Thank you very much and have nice flight.


Deluxe Airways.

X

Tours



Hello again, we created one nice test tour for all pilots to attend. also this is ment to be testing of our tour system

Available Tours

If you find some issues please inform us.

Thank you very much and have nice flight.


Deluxe Airways.

 METAR AND TAF INFORMATION
ArrayMETAR FOR LYPG
247882847 3 LYPG 222100Z 36005KT 310V030 CAVOK 12/09 Q1024 NOSIG LYPG 2020-10-22T21:00:00Z 42.37 19.25 12.0 9.0 360 5 6.21 30.236221 TRUE VFR METAR 32.0 LYPG 222030Z 35004KT CAVOK 11/08 Q1024 NOSIG LYPG 2020-10-22T20:30:00Z 42.37 19.25 11.0 8.0 350 4 6.21 30.236221 TRUE VFR METAR 32.0 LYPG 222000Z 35005KT CAVOK 12/09 Q1024 NOSIG LYPG 2020-10-22T20:00:00Z 42.37 19.25 12.0 9.0 350 5 6.21 30.236221 TRUE VFR METAR 32.0 LYPG 221930Z 34004KT CAVOK 12/09 Q1024 NOSIG LYPG 2020-10-22T19:30:00Z 42.37 19.25 12.0 9.0 340 4 6.21 30.236221 TRUE VFR METAR 32.0

 AIRPORT MAP

 RUNWAY INFORMATION
Runway 08 Runway length 7145 ft Runway width 50 ft
Runway elevation 0 ft Runway displaced threshold 0 ft Runway heading 86
Runway 26 Runway length 7145 ft Runway width 50 ft
Runway elevation 0 ft Runway displaced threshold 0 ft Runway heading 266
Runway 18 Runway length 8202 ft Runway width 148 ft
Runway elevation 118 ft Runway displaced threshold 0 ft Runway heading 184
Runway 36 Runway length 8202 ft Runway width 148 ft
Runway elevation 82 ft Runway displaced threshold 0 ft Runway heading 4

 AIRPORT FREQUENCIES
Type APP Name APP Frequency 118.7 MHZ
Type TWR Name TWR Frequency 118.2 MHZ

 AIRPORT NEAR NAVIGATION AIDS
Type NDB Name Podgorica Frequency 312 KHZ
Type VOR-DME Name Podgorica Frequency 113000 KHZ
Type NDB Name Podgorica Frequency 335 KHZ



Powered by Virtual Airlines Manager [v2.6.2]

Template code change by DeluxeAir